Temperature
30 30 30 30 30 30 30 30 30 29 29 28 28 28 28 28 27 26 26 25 24 23 22 21 21 20 20 20 19 19 18 18 17 17 17 17 16 16 16 16 16 16 15 15
29 30 30 29 30 30 30 31 30 29 29 29 28 28 28 27 27 26 26 25 23 23 22 21 21 20 19 19 19 18 18 18 17 17 17 16 16 16 16 16 15 15 15 15
27 29 29 28 29 30 30 30 30 29 29 29 29 28 27 27 27 26 25 24 23 22 22 21 20 20 19 19 19 18 18 17 17 17 16 16 16 16 16 15 15 15 15 15
27 27 26 28 30 30 30 29 30 29 29 29 28 27 27 26 26 25 25 24 23 22 22 21 20 20 19 19 19 18 18 17 17 16 16 16 16 15 15 15 15 15 15 14
26 26 26 28 29 29 29 28 29 29 29 28 28 27 26 25 25 24 24 24 23 22 21 21 20 19 19 19 18 18 17 17 17 16 16 16 16 16 15 15 15 15 14 14
26 25 25 27 29 29 29 27 28 28 28 27 27 26 25 25 24 24 23 23 22 22 21 20 20 19 19 18 18 18 17 17 17 16 16 16 16 15 15 15 15 14 14 14
25 25 26 28 28 28 26 25 27 27 27 26 26 25 25 24 24 23 23 22 22 21 20 20 19 19 19 18 18 17 17 17 17 16 16 16 15 15 15 15 15 14 14 14
25 24 24 27 27 25 24 25 26 26 26 25 25 24 24 23 23 22 22 22 21 20 20 19 19 19 18 18 17 17 17 17 16 16 15 15 15 15 15 15 15 14 14 14
25 25 25 25 25 24 24 24 25 25 25 25 24 24 23 23 22 22 22 21 20 20 19 19 18 18 18 17 17 17 17 16 16 15 15 15 15 15 15 15 14 14 14 14
24 25 25 25 25 24 24 24 24 24 24 24 23 23 22 22 22 21 21 20 20 19 19 18 18 18 17 17 17 17 16 16 16 15 15 15 15 15 15 14 14 14 14 14
23 24 24 24 24 24 24 24 23 23 23 23 22 22 22 21 21 20 20 20 19 19 18 18 17 17 17 17 17 16 16 16 16 15 15 15 15 15 15 15 15 14 14 13
23 23 23 22 23 23 23 23 22 22 22 22 22 21 21 21 20 20 19 19 18 18 17 17 17 17 17 16 16 16 16 15 15 15 15 15 15 15 15 14 14 14 14 13
22 22 22 21 21 22 22 22 21 21 21 21 21 21 20 20 20 19 19 19 18 18 17 17 17 16 16 16 16 16 16 15 15 15 15 15 15 15 14 14 14 14 14 13
21 21 21 21 21 21 21 21 21 21 21 20 20 20 20 19 19 19 18 18 18 17 17 16 16 16 16 16 16 15 15 15 15 15 15 15 15 15 14 14 14 14 14 13
20 20 20 20 20 20 20 20 20 20 20 20 19 19 19 19 19 18 18 18 17 17 16 16 16 16 16 15 15 15 15 15 15 15 15 15 15 15 14 14 14 14 14 13
19 20 20 20 20 20 20 20 20 19 19 19 19 18 18 18 18 18 17 17 16 16 16 15 15 15 15 15 15 15 15 15 15 15 15 15 15 15 14 14 14 14 13 13
19 19 19 19 19 19 19 19 19 19 18 18 18 18 18 17 17 17 17 16 16 16 15 15 15 15 15 15 15 15 15 15 15 15 15 15 15 15 15 14 14 14 13 13
18 18 18 18 18 18 18 18 18 18 18 18 18 17 17 17 16 16 16 16 16 15 15 15 15 15 14 14 14 14 14 14 14 14 14 14 14 14 14 14 14 14 13 13
18 18 18 18 18 18 18 18 18 18 17 17 17 17 17 17 16 16 16 15 15 15 15 15 14 14 14 14 14 14 14 14 14 14 14 14 14 14 14 14 14 14 13 13
17 17 17 17 17 17 17 17 17 17 17 17 17 16 16 16 16 15 15 15 15 15 15 15 14 14 14 14 14 14 14 14 14 14 14 14 14 14 14 14 13 13 13 12
17 17 17 17 17 17 17 17 17 17 16 16 16 16 16 15 15 15 15 15 15 15 15 14 14 14 14 14 14 14 14 14 14 14 14 14 13 13 13 13 13 13 12 12
16 16 16 16 16 16 16 16 16 16 16 15 15 15 15 15 15 15 15 15 15 15 15 14 14 14 14 14 14 14 14 14 14 14 13 13 13 13 13 13 12 12 12 12
15 15 15 16 16 16 16 16 15 15 15 15 15 15 15 15 15 15 15 15 14 14 14 14 14 14 14 14 13 13 14 14 13 13 13 13 13 13 13 12 12 12 12 11
15 15 15 15 15 15 15 15 15 15 15 15 14 14 14 15 15 15 15 15 14 14 14 14 14 14 14 13 13 13 13 13 13 13 13 13 13 13 12 12 12 11 11 11
14 14 14 14 14 14 14 15 15 15 15 14 14 14 14 14 14 14 14 14 14 14 14 14 14 13 13 13 13 13 13 13 13 13 12 12 12 12 12 12 11 11 11 10
14 14 14 14 14 14 14 14 14 14 14 14 14 14 14 14 14 14 14 14 14 14 14 13 13 13 13 13 13 13 13 13 13 13 12 12 12 11 11 11 11 10 10 10
13 14 14 14 14 14 14 14 14 14 14 14 14 14 14 14 14 14 13 13 13 13 13 13 13 13 13 13 13 13 13 12 12 12 12 12 11 11 10 10 10 10 9 9
Wind_Speed
14 13 11 10 10 12 13 12 10 7 5 2 2 3 6 7 8 8 9 9 8 8 7 6 6 5 5 5 5 5 5 5 5 4 3 3 3 3 2 0 1 1 1 2
14 13 12 12 13 14 14 12 10 7 5 3 4 4 6 6 7 7 8 8 7 6 7 7 6 5 4 5 5 5 5 5 5 4 3 3 3 3 2 1 1 1 1 2
12 13 13 14 12 11 10 10 9 7 3 2 2 4 4 4 5 5 7 8 6 6 7 7 6 6 5 5 5 6 5 5 5 4 4 3 2 2 2 1 1 1 1 1
11 10 13 10 7 7 7 5 5 3 2 1 4 4 4 4 5 5 5 7 7 7 6 7 7 6 6 5 6 6 5 5 4 4 4 3 2 2 2 1 1 1 0 1
8 10 11 10 7 6 5 4 4 3 1 2 3 4 4 6 6 6 4 5 6 6 6 6 6 6 5 5 6 6 5 5 5 4 4 4 3 2 2 1 1 1 1 1
8 9 10 6 5 6 4 4 1 1 2 1 1 1 2 5 6 6 5 6 6 6 6 5 5 5 5 4 5 5 5 5 4 4 3 4 3 2 2 2 2 2 1 1
10 10 7 5 3 4 5 2 1 1 1 1 3 3 3 5 5 6 6 6 7 6 6 5 5 5 5 3 4 4 4 4 4 4 3 3 3 2 2 2 2 2 1 2
9 10 6 5 3 1 2 2 1 2 2 3 4 4 5 6 5 4 5 5 6 6 5 4 5 5 5 4 3 3 4 4 4 4 3 4 4 3 3 3 3 3 3 2
4 4 1 2 4 4 2 1 2 2 3 3 2 2 4 5 4 4 4 4 5 6 5 4 4 4 4 3 3 3 4 4 3 3 2 3 4 4 3 3 2 2 2 2
3 2 2 2 1 1 1 2 2 2 2 1 1 2 3 3 4 4 3 4 4 5 5 4 4 3 3 4 4 4 4 4 4 3 3 3 1 1 1 0 1 1 1 1
4 4 4 4 4 3 2 2 3 2 2 1 1 1 1 3 3 3 3 3 4 4 4 4 4 4 4 4 4 4 5 4 4 4 3 2 2 1 1 1 1 1 1 1
5 4 4 4 4 3 2 2 2 3 2 2 1 1 0 2 3 3 3 3 4 4 4 4 4 4 4 4 5 4 4 4 4 3 3 3 3 3 2 2 4 4 2 1
5 5 4 4 6 4 2 1 1 1 1 1 1 1 1 1 3 3 3 3 3 3 3 3 4 4 4 4 4 4 4 3 3 3 3 3 3 3 3 2 2 4 5 4
4 4 5 4 3 2 3 3 3 2 2 1 1 2 1 2 2 2 2 3 3 3 3 3 4 4 4 4 3 4 4 4 3 3 3 3 3 3 3 3 3 3 5 7
5 5 5 4 3 2 2 3 3 2 2 2 2 1 1 1 2 2 2 3 3 3 3 3 3 3 4 4 4 4 3 2 2 1 2 2 2 3 3 2 2 2 2 3
5 5 5 4 4 4 3 3 3 2 2 2 2 1 1 1 1 1 2 3 3 3 3 3 2 3 3 3 3 3 2 2 1 2 3 3 3 3 3 2 2 2 1 2
6 6 5 4 4 4 5 4 3 3 3 3 2 1 1 1 2 2 2 3 3 3 3 3 3 2 2 3 3 3 2 3 3 4 3 2 2 2 2 2 2 2 1 3
7 7 6 5 5 5 5 5 4 4 3 3 2 2 2 2 3 3 2 2 3 3 3 3 3 3 3 3 2 2 2 3 3 3 2 2 2 2 2 2 2 1 1 3
6 6 6 6 6 6 5 5 4 4 3 3 2 2 2 2 2 2 3 3 3 4 3 4 5 4 4 3 2 2 3 3 3 2 2 2 3 3 2 2 1 1 0 1
6 6 6 5 6 5 5 5 4 3 3 2 2 2 1 2 2 2 3 3 3 3 3 5 5 4 4 3 2 3 3 3 3 2 1 2 2 2 2 2 2 1 1 0
5 5 4 5 5 5 5 4 4 3 2 2 2 2 2 2 3 3 3 4 4 4 4 5 4 3 3 2 4 4 3 3 3 2 2 2 3 2 2 1 1 1 1 0
4 4 4 4 4 4 3 3 3 2 2 2 3 2 2 3 3 3 3 2 4 5 4 4 4 4 3 2 3 4 3 3 2 2 2 2 2 2 2 2 1 1 0 0
3 3 3 3 3 2 2 1 2 2 2 2 2 3 4 3 3 3 3 3 5 6 4 3 6 7 4 3 3 3 3 2 2 2 1 1 2 2 2 2 1 0 0 0
2 1 2 2 2 1 1 2 2 2 2 2 2 2 3 3 3 2 2 4 6 5 3 6 9 7 5 3 3 3 2 2 1 1 1 1 1 1 1 1 1 1 1 0
2 1 1 1 1 1 1 2 1 1 2 2 2 2 3 2 2 2 3 5 7 5 3 6 9 8 5 4 3 2 1 0 0 0 1 1 1 1 1 2 2 2 1 1
2 1 1 2 2 2 1 1 1 1 1 1 0 0 0 0 1 2 3 4 5 4 3 4 5 6 5 3 2 1 1 1 0 0 0 1 1 1 2 2 2 2 2 2
2 2 1 1 1 1 1 1 1 1 0 1 1 0 1 1 2 2 3 3 3 2 2 2 2 3 2 2 1 1 1 0 0 1 1 2 2 3 2 2 2 2 2 2
Wind_Direction
271 270 265 263 259 261 261 260 264 271 268 246 214 188 147 141 140 139 137 134 133 138 141 143 143 142 150 153 151 148 148 153 157 155 150 148 146 139 128 119 87 55 37 31
271 267 270 269 259 256 258 260 253 240 242 215 214 154 136 142 148 152 144 135 135 142 143 147 145 142 150 155 152 148 155 158 149 150 152 150 143 131 136 126 79 63 37 40
267 268 268 260 264 258 259 268 261 252 234 190 141 103 125 126 137 139 135 136 148 151 151 146 148 149 157 162 149 150 153 151 153 159 155 152 162 146 151 131 102 83 52 56
266 264 258 267 270 268 258 276 294 238 199 129 104 117 118 119 122 128 141 150 154 154 151 148 152 151 159 162 153 151 154 154 154 158 158 157 157 157 151 143 138 146 174 61
266 262 261 265 265 262 246 252 269 258 180 83 85 115 110 108 104 110 131 138 140 142 137 137 146 148 156 167 154 153 157 158 160 163 160 166 170 166 160 172 174 186 174 156
258 262 264 260 278 292 259 219 285 72 89 71 111 178 112 103 106 114 108 111 119 124 125 125 134 142 148 148 149 157 158 156 153 160 169 168 163 161 163 186 203 207 174 166
257 260 263 305 320 298 246 218 24 134 126 62 49 64 85 91 92 101 106 111 113 115 119 123 135 140 144 144 147 147 145 144 148 161 176 163 152 157 169 200 204 211 197 182
248 254 259 342 351 75 57 36 74 52 81 89 86 92 90 96 97 104 110 113 117 111 113 122 134 139 142 141 136 139 140 143 153 170 194 157 153 172 190 206 211 210 210 217
260 257 306 10 50 64 71 51 54 42 60 67 83 91 100 114 119 112 109 117 123 120 113 115 121 130 142 135 132 136 138 142 150 159 161 152 177 189 203 205 221 225 224 231
298 281 316 324 79 118 47 57 41 46 48 39 60 69 81 110 113 111 106 118 124 125 125 123 123 124 129 131 140 146 145 149 160 167 173 163 188 197 200 197 265 280 303 345
270 284 310 327 354 356 13 34 39 39 46 42 56 57 70 111 117 120 129 120 127 133 134 135 131 132 141 140 147 157 163 170 180 176 166 153 146 109 133 121 154 199 358 3
276 291 287 309 320 352 5 13 13 355 23 21 14 10 340 130 132 142 147 141 144 145 145 148 151 153 155 155 156 165 179 189 195 181 177 176 171 163 119 151 158 163 174 190
291 311 321 317 324 335 352 351 327 314 338 346 350 331 307 121 129 138 146 143 143 143 142 147 161 166 162 160 167 180 187 196 206 193 186 190 194 184 178 182 204 219 221 217
294 308 306 303 312 334 339 328 320 317 345 351 318 297 239 141 133 148 155 156 144 141 154 158 161 164 158 163 177 191 198 196 210 208 204 201 194 205 208 203 196 217 221 216
279 287 290 292 287 287 291 302 304 319 337 328 323 335 80 123 143 156 154 150 141 155 159 154 155 156 159 176 187 200 206 206 217 225 220 210 215 225 226 213 211 212 181 188
280 276 280 284 289 294 286 285 297 316 316 300 295 311 189 172 159 157 156 154 157 168 157 157 163 159 164 173 184 203 192 181 212 241 242 231 230 238 233 209 221 227 212 163
279 272 272 279 288 289 288 289 298 311 305 300 289 306 237 156 154 157 154 148 145 144 151 144 147 152 177 195 204 210 188 175 211 247 244 241 250 256 260 246 239 223 153 140
267 264 261 266 272 275 277 283 288 285 277 273 263 238 212 178 178 172 171 163 156 161 152 146 149 161 191 200 206 209 192 201 225 239 252 258 265 264 268 268 257 220 159 151
266 267 261 257 261 260 260 265 268 270 271 256 230 224 229 199 175 176 177 185 194 189 170 157 160 185 190 175 207 224 221 221 230 232 240 232 250 259 268 282 300 297 358 118
283 282 269 263 269 268 260 255 257 258 258 235 227 222 216 200 185 190 197 207 197 177 153 151 173 190 178 168 226 243 236 237 246 247 233 242 251 258 270 281 294 311 349 84
286 281 277 267 263 261 263 261 252 247 253 239 230 221 208 209 207 204 215 207 163 150 159 163 180 179 171 178 226 253 260 250 247 245 247 255 253 253 265 279 294 311 318 3
279 275 275 274 272 267 258 249 234 230 231 239 237 216 208 212 214 217 219 199 161 152 174 184 171 142 144 194 235 254 261 261 253 245 252 255 256 252 255 255 249 245 183 255
294 291 290 288 283 283 283 251 224 215 224 236 230 222 218 224 228 226 208 176 165 172 189 174 143 140 159 226 247 256 259 262 265 258 263 264 255 249 255 254 247 247 179 286
304 300 298 290 283 270 265 259 244 226 212 211 226 225 216 211 219 220 158 130 138 150 165 144 152 165 197 233 242 246 242 256 284 286 273 285 299 305 310 345 7 23 33 6
293 260 256 265 257 255 246 244 231 183 181 174 189 210 223 215 212 179 145 141 143 152 158 162 172 184 208 233 233 233 243 302 340 25 305 307 321 351 50 57 39 28 13 3
311 268 240 249 241 239 229 222 228 220 193 167 208 183 294 200 177 158 151 157 159 162 169 172 173 190 212 221 214 222 220 172 129 114 97 76 42 58 60 34 22 29 21 26
284 278 247 237 260 262 244 242 258 262 199 119 97 99 226 194 149 148 151 151 155 155 155 166 179 194 203 205 204 214 214 251 38 49 69 84 78 69 63 49 26 18 29 33
Height
1444 1439 1439 1442 1443 1442 1445 1445 1452 1451 1451 1450 1446 1447 1450 1454 1458 1462 1466 1470 1473 1476 1479 1481 1484 1485 1486 1488 1489 1491 1492 1493 1493 1495 1496 1497 1498 1498 1498 1499 1499 1499 1498 1498
1448 1441 1440 1443 1440 1440 1439 1438 1442 1445 1449 1446 1446 1448 1451 1455 1457 1461 1465 1469 1473 1476 1478 1480 1482 1484 1485 1487 1488 1489 1490 1491 1492 1493 1495 1496 1497 1497 1497 1497 1497 1497 1497 1497
1455 1444 1445 1451 1440 1437 1438 1436 1438 1445 1445 1443 1445 1448 1452 1454 1457 1461 1465 1469 1472 1475 1477 1479 1481 1482 1484 1485 1487 1488 1489 1490 1491 1492 1494 1495 1496 1496 1496 1496 1496 1496 1496 1496
1453 1453 1467 1446 1431 1431 1435 1436 1435 1437 1441 1442 1446 1450 1453 1456 1458 1461 1465 1468 1471 1474 1476 1478 1480 1481 1483 1484 1486 1487 1488 1490 1490 1492 1493 1494 1495 1495 1495 1495 1495 1495 1495 1495
1454 1459 1455 1442 1433 1432 1437 1441 1439 1439 1441 1443 1446 1450 1453 1456 1459 1462 1465 1468 1470 1473 1475 1477 1479 1480 1482 1483 1485 1486 1487 1488 1490 1491 1492 1493 1493 1493 1494 1494 1494 1494 1494 1494
1455 1464 1465 1446 1433 1432 1436 1446 1442 1441 1443 1446 1448 1453 1456 1458 1460 1463 1466 1468 1470 1472 1474 1476 1478 1479 1481 1483 1484 1485 1486 1487 1488 1490 1490 1491 1492 1492 1493 1493 1493 1493 1493 1493
1456 1460 1451 1438 1435 1436 1450 1453 1445 1444 1446 1449 1451 1454 1457 1458 1462 1464 1466 1468 1470 1471 1473 1475 1477 1479 1480 1481 1482 1484 1485 1486 1487 1488 1489 1490 1491 1491 1492 1492 1492 1492 1492 1491
1454 1460 1458 1441 1439 1445 1450 1447 1446 1447 1448 1450 1453 1455 1457 1459 1462 1464 1467 1468 1469 1471 1473 1474 1476 1477 1479 1480 1481 1483 1484 1485 1486 1487 1489 1490 1490 1490 1491 1491 1491 1491 1491 1491
1447 1451 1446 1445 1446 1447 1447 1448 1448 1449 1450 1451 1453 1456 1458 1460 1463 1464 1466 1468 1470 1471 1473 1474 1475 1476 1478 1479 1480 1481 1483 1484 1485 1486 1487 1488 1489 1489 1489 1490 1490 1490 1490 1490
1446 1443 1444 1446 1446 1447 1448 1448 1449 1450 1452 1453 1455 1456 1458 1460 1462 1464 1466 1468 1469 1471 1472 1473 1474 1475 1477 1478 1479 1480 1482 1483 1484 1485 1486 1487 1487 1488 1488 1488 1489 1489 1489 1488
1447 1446 1446 1447 1447 1448 1449 1450 1451 1451 1453 1454 1456 1457 1458 1460 1462 1464 1466 1467 1469 1470 1471 1472 1473 1474 1476 1477 1478 1479 1480 1482 1483 1484 1485 1485 1486 1486 1487 1487 1487 1487 1487 1487
1448 1448 1448 1449 1448 1448 1450 1451 1452 1453 1453 1455 1456 1457 1459 1460 1462 1463 1465 1466 1468 1469 1470 1471 1471 1472 1474 1475 1476 1478 1479 1480 1482 1483 1483 1484 1484 1485 1485 1485 1485 1485 1485 1485
1448 1448 1449 1450 1449 1450 1451 1451 1452 1453 1454 1455 1457 1457 1458 1459 1461 1463 1464 1465 1466 1468 1469 1469 1470 1471 1472 1473 1475 1476 1477 1479 1480 1481 1481 1482 1483 1483 1483 1484 1484 1483 1483 1483
1450 1450 1450 1451 1451 1451 1452 1452 1452 1453 1453 1454 1455 1456 1457 1458 1460 1462 1463 1464 1465 1466 1467 1468 1469 1470 1471 1472 1474 1475 1477 1478 1479 1479 1480 1480 1481 1481 1482 1482 1482 1481 1481 1481
1450 1450 1451 1451 1451 1451 1452 1452 1452 1452 1453 1454 1454 1454 1455 1457 1459 1460 1462 1463 1464 1465 1466 1467 1468 1469 1470 1471 1473 1474 1475 1476 1477 1478 1479 1479 1480 1480 1480 1480 1480 1480 1480 1479
1449 1450 1450 1450 1450 1450 1450 1451 1451 1451 1452 1454 1454 1455 1456 1456 1457 1459 1461 1462 1462 1463 1464 1465 1467 1468 1469 1470 1472 1473 1474 1475 1475 1476 1477 1478 1478 1479 1479 1479 1479 1478 1478 1477
1449 1449 1449 1449 1449 1450 1450 1450 1450 1451 1452 1453 1453 1454 1455 1455 1456 1457 1459 1460 1461 1462 1463 1464 1465 1466 1467 1469 1470 1471 1472 1473 1474 1475 1476 1476 1476 1477 1477 1477 1477 1477 1476 1475
1448 1448 1448 1448 1448 1448 1449 1449 1449 1450 1451 1452 1452 1453 1454 1454 1455 1456 1457 1459 1460 1461 1462 1463 1464 1465 1466 1467 1469 1470 1471 1472 1472 1473 1474 1474 1474 1475 1475 1475 1475 1475 1474 1474
1444 1444 1444 1445 1445 1445 1446 1447 1447 1448 1449 1449 1450 1451 1452 1453 1454 1455 1456 1458 1459 1460 1460 1461 1462 1463 1465 1466 1467 1468 1470 1470 1471 1471 1472 1472 1472 1472 1473 1473 1473 1473 1473 1472
1442 1442 1442 1442 1442 1443 1443 1444 1445 1446 1447 1447 1448 1449 1450 1451 1452 1454 1455 1456 1457 1458 1459 1460 1461 1462 1463 1465 1466 1467 1468 1469 1469 1469 1470 1470 1470 1471 1471 1471 1471 1471 1471 1470
1439 1439 1439 1439 1439 1440 1441 1441 1442 1443 1444 1445 1446 1447 1448 1449 1451 1452 1453 1454 1455 1456 1457 1458 1459 1460 1462 1463 1464 1465 1466 1466 1467 1467 1468 1468 1468 1468 1468 1468 1469 1469 1468 1468
1437 1437 1437 1437 1437 1437 1438 1439 1439 1441 1442 1443 1444 1445 1446 1447 1449 1450 1451 1452 1453 1454 1455 1456 1458 1459 1460 1461 1462 1463 1463 1464 1464 1465 1465 1466 1466 1466 1466 1466 1466 1466 1466 1465
1435 1435 1435 1435 1435 1435 1436 1437 1437 1438 1440 1441 1442 1443 1444 1445 1447 1448 1449 1451 1451 1452 1453 1455 1456 1457 1458 1459 1460 1460 1461 1461 1462 1462 1463 1463 1463 1464 1463 1463 1463 1463 1463 1463
1433 1434 1434 1434 1434 1434 1434 1435 1436 1437 1438 1439 1440 1441 1442 1444 1445 1446 1447 1448 1449 1450 1452 1452 1454 1455 1456 1457 1457 1458 1458 1459 1459 1460 1460 1460 1461 1461 1461 1461 1461 1461 1460 1460
1433 1433 1433 1433 1433 1433 1434 1435 1435 1436 1437 1438 1439 1439 1441 1442 1443 1444 1446 1446 1448 1449 1450 1451 1452 1453 1453 1454 1455 1456 1456 1456 1457 1457 1457 1458 1458 1458 1459 1459 1459 1458 1458 1457
1432 1432 1432 1432 1433 1433 1434 1434 1435 1435 1436 1436 1437 1438 1439 1440 1442 1443 1444 1445 1446 1447 1448 1449 1450 1451 1452 1453 1454 1454 1454 1454 1455 1455 1455 1456 1456 1456 1456 1456 1456 1456 1455 1455
1431 1431 1431 1431 1432 1432 1433 1433 1434 1434 1435 1435 1436 1438 1439 1439 1440 1441 1443 1444 1445 1446 1447 1448 1449 1449 1450 1451 1452 1452 1452 1452 1453 1453 1453 1453 1454 1454 1454 1454 1453 1453 1452 1452